Regional Weather Roundup
Issued by NWS

Home | Current Version | Previous Version | Graphics & Text | Print | Product List | Glossary On
Versions: 1 2 3 4 5 6 7 8 9 10 11 12 13 14 15 16 17 18 19 20 21 22 23 24 25 26 27 28 29 30 31 32 33 34 35 36 37 38 39 40 41 42 43 44 45 46 47 48 49 50
000
ASUS43 KBIS 260402
RWRND

NORTH DAKOTA REGIONAL WEATHER ROUNDUP
NATIONAL WEATHER SERVICE BISMARCK ND
1100 PM CDT MON SEP 25 2017

NOTE: "FAIR" INDICATES FEW OR NO CLOUDS BELOW 12,000 FEET WITH NO
SIGNIFICANT WEATHER AND/OR OBSTRUCTIONS TO VISIBILITY.


NDZ001>003-009>011-017-260500-
NORTHWEST NORTH DAKOTA

CITY           SKY/WX    TMP DP  RH WIND       PRES   REMARKS
WILLISTON      LGT RAIN  48  46  93 E3        30.13S
MINOT          CLOUDY    51  43  74 CALM      30.12F
MINOT AFB      CLOUDY    48  44  86 CALM      30.11F
$$

NDZ018>021-031>035-040>046-260500-
SOUTHWEST NORTH DAKOTA

CITY           SKY/WX    TMP DP  RH WIND       PRES   REMARKS
BISMARCK       CLOUDY    47  45  93 SE5       30.14R
DICKINSON      CLOUDY    44  44 100 E3        30.09F
GARRISON         N/A     48  44  86 NE5       30.12S
HETTINGER ARPT CLOUDY    44  41  89 E3        30.12S
$$

NDZ004>008-012>016-024-026-027-054-260500-
NORTHEAST NORTH DAKOTA

CITY           SKY/WX    TMP DP  RH WIND       PRES   REMARKS
GRAND FORKS    CLOUDY    51  48  89 N8        30.11R
GRND FRKS AFB  CLOUDY    50  45  83 N7        30.11S
DEVILS LAKE    CLOUDY    44  41  89 NE6       30.13S
$$

NDZ022-023-025-028>030-036>039-047>053-260500-
SOUTHEAST NORTH DAKOTA

CITY           SKY/WX    TMP DP  RH WIND       PRES   REMARKS
FARGO          LGT RAIN  51  50  96 N8        30.07F
JAMESTOWN      CLOUDY    48  44  86 NE7       30.10F
$$





USA.gov is the U.S. government's official web portal to all federal, state and local government web resources and services.